Regional Weather Roundup
Issued by NWS

Home | Current Version | Previous Version | Graphics & Text | Print | Product List | Glossary On
Versions: 1 2 3 4 5 6 7 8 9 10 11 12 13 14 15 16 17 18 19 20 21 22 23 24 25 26 27 28 29 30 31 32 33 34 35 36 37 38 39 40 41 42 43 44 45 46 47 48 49 50
000
ASUS43 KLOT 222010
RWRIL

ILLINOIS REGIONAL WEATHER ROUNDUP
NATIONAL WEATHER SERVICE CHICAGO/ROMEOVILLE IL
200 PM CST MON DEC 22 2014

NOTE: "FAIR" INDICATES FEW OR NO CLOUDS BELOW 12,000 FEET WITH NO
SIGNIFICANT WEATHER AND/OR OBSTRUCTIONS TO VISIBILITY.

* THESE STATIONS ARE NOT UNDER NWS QUALITY CONTROL. THEY ALSO MAY NOT
  REPORT WEATHER SUCH AS PRECIPITATION OR FOG.

ILZ001-002-007-009-015-016-024-222100-
NORTHWEST ILLINOIS

CITY           SKY/WX    TMP DP  RH WIND       PRES   REMARKS
MOLINE         CLOUDY    37  35  92 E13       29.59F FOG     WCI  29
STERLING*      CLOUDY    36  34  93 E15       29.62F WCI  26
SAVANNA*       LGT RAIN  37  34  91 E15       29.61F WCI  27
$$

ILZ003-004-008-010-011-017-018-222100-
NORTH CENTRAL ILLINOIS

CITY           SKY/WX    TMP DP  RH WIND       PRES   REMARKS
ROCKFORD       LGT RAIN  35  32  88 E13       29.69F FOG     WCI  26
FREEPORT*      LGT RAIN  34  33  96 E13       29.67F WCI  25
ROCHELLE*      DRIZZLE   34  33  97 E17       29.67F WCI  24
DE KALB*       LGT RAIN  34  33  96 E13       29.69F WCI  25
PERU*          LGT RAIN  37  37  97 E17       29.64F WCI  28
$$

ILZ005-006-012>014-019>023-222100-
NORTHEAST ILLINOIS

CITY           SKY/WX    TMP DP  RH WIND       PRES   REMARKS
CHICAGO-OHARE  LGT RAIN  36  33  89 E10       29.73F FOG     WCI  28
CHICAGO-MIDWAY LGT RAIN  39  35  86 E10       29.74F FOG     WCI  32
AURORA         LGT RAIN  38  34  85 E14       29.69F FOG     WCI  30
LANSING*       LGT RAIN  38  36  92 SE9       29.74F WCI  31
JOLIET*        LGT RAIN  37  35  94 E12       29.71F WCI  29
WAUKEGAN       LGT RAIN  35  33  92 E12       29.75F FOG     WCI  27
DUPAGE AIRPORT LGT RAIN  36  33  89 E8        29.71F FOG     WCI  30
KANKAKEE*      RAIN      37  37  97 E12       29.73F WCI  30
WHEELING       LGT RAIN  35  33  92 E7        29.76F FOG     WCI  29
MORRIS*        LGT RAIN  37  37 100 SE13      29.69F WCI  29
ROMEOVILLE*    LGT RAIN  37  37  99 E9        29.71F WCI  30
NORTHERLY ISL    N/A     36  33  89 E9          N/A  WCI  29
$$

LMZ740>746-222100-
SOUTHERN LAKE MICHIGAN

STATION/POSITION SKY/WX   TEMP    WIND        PRES    VSBY  WAVE
                          AIR SEA DIR/SP/G                  HT/PER
                          (F)     (DEG/KT/KT) (MB)    (MI)  (FT/S)
WAUKEGAN HARBOR            35     120/ 11/ 12   N/A
HARRISON CRIB              36     120/ 16/ 17   N/A
BURNHAM HARBOR             36     100/  8/ 10   N/A
CALUMET HARBOR             36      90/  9/ 11 1006.3F
$$

ILZ025>027-034>036-040-047-049-050-058-095>099-222100-
WEST-CENTRAL ILLINOIS

CITY           SKY/WX    TMP DP  RH WIND       PRES   REMARKS
QUINCY         CLOUDY    42  41  96 SE8       29.55F FOG
GALESBURG*     CLOUDY    38  38  98 SE8       29.59F FOG     WCI  32
MACOMB*        CLOUDY    40  40 100 SE10      29.60F FOG
JACKSONVILLE*  CLOUDY    46  44  92 SE10G17   29.59F
PITTSFIELD*    CLOUDY    45  43  93 SE8       29.58F
$$

ILZ028>032-037-038-041>044-048-051>054-059>061-222100-
CENTRAL ILLINOIS

CITY           SKY/WX    TMP DP  RH WIND       PRES   REMARKS
PONTIAC        LGT RAIN  38  38  99 E15       29.68F WCI  30
BLOOMINGTON    LGT RAIN  40  40 100 SE15      29.64F FOG
DECATUR        LGT RAIN  44  43  96 SE15      29.65F FOG
PEORIA         LGT RAIN  42  39  89 SE12      29.62F
LACON*         LGT RAIN  38  37  93 SE14G20   29.62F WCI  30
LINCOLN*       RAIN      44  43  94 S13       29.63F
SPRINGFIELD    LGT RAIN  45  44  97 SE15      29.61F FOG
TAYLORVILLE    RAIN      43  43 100 SE12G18   29.62F
$$

ILZ033-039-045-046-055>057-062-063-222100-
EAST-CENTRAL ILLINOIS

CITY           SKY/WX    TMP DP  RH WIND       PRES   REMARKS
CHAMPAIGN      LGT RAIN  42  40  92 SE15      29.67F FOG
DANVILLE*      LGT RAIN  41  39  95 SE13      29.69F
RANTOUL*       LGT RAIN  42  41  97 SE10      29.69F
MATTOON        LGT RAIN  44  42  93 SE10      29.66F FOG
PARIS*         LGT RAIN  44  43  96 SE10      29.72F
$$

ILZ079-100>102-222100-
SOUTHWEST ILLINOIS

CITY           SKY/WX    TMP DP  RH WIND       PRES   REMARKS
ALTON          LGT RAIN  46  45  93 SE9       29.60F
BELLEVILLE     LGT RAIN  48  48 100 SE9       29.60F FOG
CAHOKIA*       LGT RAIN  49  47  93 SE7       29.59F FOG
SPARTA*        LGT RAIN  48  47  96 SE9       29.61F
$$

ILZ064>066-069>071-074>076-080>082-084>086-088>090-092>094-222100-
SOUTH-CENTRAL ILLINOIS

CITY           SKY/WX    TMP DP  RH WIND       PRES   REMARKS
CARBONDALE     CLOUDY    50  47  89 S12       29.63F
CAIRO*         CLOUDY    54  54 100 SE9       29.64F
EFFINGHAM*     LGT RAIN  46  43  90 E13       29.67F
MARION         DRIZZLE   50  48  93 S9        29.65F
MT. VERNON       N/A     46  43  87 SE10      29.66F
CENTRALIA*     LGT RAIN  46  44  91 SE12      29.64F
SALEM*         RAIN      48  46  91 SE9       29.65F
METROPOLIS*    LGT RAIN  50  50 100 E6        29.64F
$$

ILZ067-068-072-073-078-083-087-091-222100-
SOUTHEAST ILLINOIS

CITY           SKY/WX    TMP DP  RH WIND       PRES   REMARKS
LAWRENCEVILLE  LGT RAIN  48  45  89 SE15      29.72F
FLORA*         LGT RAIN  46  46  97 SE10      29.67F
FAIRFIELD*     LGT RAIN  48  46  95 SE10G16   29.66F
HARRISBURG*    LGT RAIN  49  49  99 SE8       29.67F
ROBINSON*      LGT RAIN  47  44  88 SE13      29.72F
CARMI*         LGT RAIN  50  49  95 SE16      29.67F
$$

ABBREVIATIONS USED IN REMARKS
   TC - TEMPERATURE IN CELSIUS
  WCI - WIND CHILL INDEX
   HX - HEAT INDEX
  VSB - VISIBILITY
$$



USA.gov is the U.S. government's official web portal to all federal, state and local government web resources and services.